Tracking 25953 objects as of 16-Aug-2022
HD Live streaming from Space Station
objects crossing your sky now

OSCAR 29

Track OSCAR 29 now!
10-day predictions
OSCAR 29 is classified as:


NORAD ID: 18362
Int'l Code: 1987-080B
Perigee: 1,020.5 km
Apogee: 1,181.5 km
Inclination: 90.3 °
Period: 107.1 minutes
Semi major axis: 7471 km
RCS: 1.4883 m2 (large)
Launch date: September 16, 1987
Source: United States (US)
Launch site: AIR FORCE WESTERN TEST RANGE (AFWTR)
aabbcc
Your satellite tracking list
Your tracking list is empty




NASA's NSSDC Master Catalog

Two Line Element Set (TLE):
1 18362U 87080B   22227.43874328  .00000090  00000-0  13450-3 0  9992
2 18362  90.3310  36.5153 0107706 124.4644 265.4505 13.44156548711824
Source of the keplerian elements: AFSPC